Location: Newark
(39.1981°N, 120.2353°W)
Time: 10:29:54
(UTC+00:00)

Envisat - Visible Passes

Search period start: 17 August 2019 00:00
Search period end: 27 August 2019 00:00
Orbit: 764 x 766 km, 98.1° (Epoch: 17 August)

Date Brightness Start Highest point End Pass type
(mag) Time Alt. Az. Time Alt. Az. Time Alt. Az.
17 Aug 6.0 03:45:45 10° WSW 03:48:02 13° W 03:50:18 10° WNW visible
20 Aug 5.8 03:33:27 10° SW 03:36:40 17° W 03:39:53 10° NW visible
23 Aug 5.7 03:21:29 10° SW 03:25:18 21° W 03:29:09 10° NW visible
25 Aug 6.1 03:49:23 10° WSW 03:51:05 12° W 03:52:49 10° WNW visible
26 Aug 5.3 03:09:42 10° SSW 03:13:58 27° W 03:18:16 10° NW visible
